Location: Campestrin
(46.4667°N, 11.7167°E)
Time: 04:36:35
(UTC+00:00)

Cosmos 407 Rocket - Pass Details

Date: 18 April 2021
Orbit: 743 x 787 km, 74.0° (Epoch: 16 May)

Event Time Altitude Azimuth Distance (km) Brightness Sun altitude
Exits shadow 20:53:36 20° 221° (SW) 1,682 5.1 -24.6°
Maximum altitude 20:57:04 58° 295° (WNW) 874 4.0 -24.9°
Drops below altitude 10° 21:02:11 10° 15° (NNE) 2,289 6.4 -25.4°
Sets 21:04:37 0° 20° (NNE) 3,224 7.2 -25.7°
